| ตารางข้อมูล | ค้นข้อมูล1 | ค้นข้อมูล2 | ค่าสูงสุด-ต่ำสุด |  

Select Sensor -->| 20402 | 4529A | 4529C | 4529D | 89M1A | 89M1B | หน้าจอย่อ | 4529 |
ข้อมูลรวม (ยังไม่ได้เลือก Sensor)

IDDate TimeRoom  Temp  Humidity RSSI Time
 1154284  2026-09-04 11:48:17  4529A  28.8 °C  66.3 %   11:48 
 1154283  2026-09-04 11:48:03  89M1B  33.1 °C  65.0 %   11:48 
 1154282  2026-09-04 11:44:38  4529C  30.7 °C  57.9 %   11:44 
 1154281  2026-09-04 11:43:44  20402  29.5 °C  48.6 %   11:43 
 1154280  2026-09-04 11:43:24  89M1A  35.1 °C  62.1 %   11:43 
 1154279  2026-09-04 11:40:49  4529D  29.7 °C  65.5 %   11:40 
 1154278  2026-09-04 11:38:24  89M1B  33.1 °C  65.6 %   11:38 
 1154277  2026-09-04 11:38:05  4529A  29.4 °C  71.0 %   11:38 
 1154276  2026-09-04 11:34:35  4529C  30.6 °C  57.9 %   11:34 
 1154275  2026-09-04 11:33:48  89M1A  36.1 °C  55.4 %   11:33 
 1154274  2026-09-04 11:33:34  20402  29.4 °C  48.1 %   11:33 
 1154273  2026-09-04 11:31:17  4529D  29.3 °C  66.2 %   11:31 
 1154272  2026-09-04 11:28:46  89M1B  33.1 °C  66.0 %   11:28 
 1154271  2026-09-04 11:27:53  4529A  29.0 °C  66.3 %   11:27 
 1154270  2026-09-04 11:24:33  4529C  30.6 °C  57.7 %   11:24 
 1154269  2026-09-04 11:24:12  89M1A  36.5 °C  53.8 %   11:24 
 1154268  2026-09-04 11:23:24  20402  29.4 °C  48.1 %   11:23 
 1154267  2026-09-04 11:21:44  4529D  29.6 °C  68.9 %   11:21 
 1154266  2026-09-04 11:19:07  89M1B  32.9 °C  66.3 %   11:19 
 1154265  2026-09-04 11:17:41  4529A  29.3 °C  71.3 %   11:17 
 1154264  2026-09-04 11:14:33  89M1A  35.7 °C  55.8 %   11:14 
 1154263  2026-09-04 11:14:30  4529C  30.5 °C  57.4 %   11:14 
 1154262  2026-09-04 11:13:12  20402  29.4 °C  47.9 %   11:13 
 1154261  2026-09-04 11:12:11  4529D  29.4 °C  71.8 %   11:12 
 1154260  2026-09-04 11:09:28  89M1B  32.6 °C  67.0 %   11:09 
 1154259  2026-09-04 11:07:29  4529A  29.1 °C  64.6 %   11:07 
 1154258  2026-09-04 11:04:54  89M1A  35.2 °C  58.0 %   11:04 
 1154257  2026-09-04 11:04:28  4529C  30.5 °C  57.6 %   11:04 
 1154256  2026-09-04 11:02:59  20402  29.3 °C  47.7 %   11:02 
 1154255  2026-09-04 11:02:38  4529D  29.3 °C  74.8 %   11:02 
 1154254  2026-09-04 10:59:49  89M1B  32.8 °C  67.6 %   10:59 
 1154253  2026-09-04 10:57:17  4529A  29.3 °C  72.1 %   10:57 
 1154252  2026-09-04 10:55:16  89M1A  35.3 °C  59.9 %   10:55 
 1154251  2026-09-04 10:54:26  4529C  30.5 °C  57.5 %   10:54 
 1154250  2026-09-04 10:53:04  4529D  29.2 °C  77.0 %   10:53 
 1154249  2026-09-04 10:52:47  20402  29.2 °C  47.3 %   10:52 
 1154248  2026-09-04 10:50:10  89M1B  32.6 °C  68.0 %   10:50 
 1154247  2026-09-04 10:47:05  4529A  28.7 °C  67.8 %   10:47 
 1154246  2026-09-04 10:45:37  89M1A  34.8 °C  59.1 %   10:45 
 1154245  2026-09-04 10:44:23  4529C  30.4 °C  57.4 %   10:44 
 1154244  2026-09-04 10:43:31  4529D  29.3 °C  76.8 %   10:43 
 1154243  2026-09-04 10:42:34  20402  29.1 °C  46.5 %   10:42 
 1154242  2026-09-04 10:40:30  89M1B  32.3 °C  68.4 %   10:40 
 1154241  2026-09-04 10:36:53  4529A  29.5 °C  72.6 %   10:36 
 1154240  2026-09-04 10:36:00  89M1A  34.8 °C  59.3 %   10:36 
 1154239  2026-09-04 10:34:21  4529C  30.4 °C  57.4 %   10:34 
 1154238  2026-09-04 10:33:58  4529D  29.2 °C  76.8 %   10:33 
 1154237  2026-09-04 10:32:24  20402  29.1 °C  46.0 %   10:32 
 1154236  2026-09-04 10:30:51  89M1B  32.1 °C  68.9 %   10:30 
 1154235  2026-09-04 10:26:42  4529A  28.8 °C  70.2 %   10:26 
 1154234  2026-09-04 10:26:23  89M1A  35.6 °C  60.2 %   10:26 
 1154233  2026-09-04 10:24:26  4529D  29.1 °C  76.1 %   10:24 
 1154232  2026-09-04 10:24:18  4529C  30.4 °C  57.3 %   10:24 
 1154231  2026-09-04 10:22:14  20402  29.0 °C  45.2 %   10:22 
 1154230  2026-09-04 10:21:13  89M1B  32.0 °C  69.2 %   10:21 
 1154229  2026-09-04 10:16:46  89M1A  34.9 °C  62.4 %   10:16 
 1154228  2026-09-04 10:16:30  4529A  28.8 °C  70.8 %   10:16 
 1154227  2026-09-04 10:14:53  4529D  28.7 °C  75.6 %   10:14 
 1154226  2026-09-04 10:14:16  4529C  30.3 °C  57.3 %   10:14 
 1154225  2026-09-04 10:12:04  20402  28.9 °C  44.5 %   10:12 
 1154224  2026-09-04 10:11:34  89M1B  32.0 °C  69.4 %   10:11 
 1154223  2026-09-04 10:07:08  89M1A  34.5 °C  63.9 %   10:07 
 1154222  2026-09-04 10:06:16  4529A  29.6 °C  73.4 %   10:06 
 1154221  2026-09-04 10:05:20  4529D  28.9 °C  75.8 %   10:05 
 1154220  2026-09-04 10:04:14  4529C  30.3 °C  56.5 %   10:04 
 1154219  2026-09-04 10:01:55  89M1B  31.9 °C  69.4 %   10:01 
 1154218  2026-09-04 10:01:54  20402  28.9 °C  44.6 %   10:01 
 1154217  2026-09-04 09:57:31  89M1A  34.6 °C  62.0 %   09:57 
 1154216  2026-09-04 09:56:02  4529A  29.6 °C  72.2 %   09:56 
 1154215  2026-09-04 09:55:48  4529D  29.0 °C  76.0 %   09:55 
 1154214  2026-09-04 09:54:11  4529C  30.3 °C  56.7 %   09:54 
 1154213  2026-09-04 09:52:16  89M1B  31.9 °C  69.6 %   09:52 
 1154212  2026-09-04 09:51:42  20402  28.6 °C  43.0 %   09:51 
 1154211  2026-09-04 09:47:51  89M1A  33.5 °C  65.8 %   09:47 
 1154210  2026-09-04 09:46:14  4529D  29.1 °C  76.2 %   09:46 
 1154209  2026-09-04 09:45:51  4529A  29.4 °C  72.3 %   09:45 
 1154208  2026-09-04 09:44:09  4529C  30.2 °C  57.1 %   09:44 
 1154207  2026-09-04 09:42:38  89M1B  31.6 °C  69.7 %   09:42 
 1154206  2026-09-04 09:41:32  20402  28.6 °C  42.9 %   09:41 
 1154205  2026-09-04 09:38:13  89M1A  33.2 °C  65.6 %   09:38 
 1154204  2026-09-04 09:36:42  4529D  29.2 °C  76.3 %   09:36 
 1154203  2026-09-04 09:35:40  4529A  28.8 °C  69.4 %   09:35 
 1154202  2026-09-04 09:34:06  4529C  30.1 °C  57.4 %   09:34 
 1154201  2026-09-04 09:32:59  89M1B  31.6 °C  69.7 %   09:32 
 1154200  2026-09-04 09:31:19  20402  28.4 °C  42.4 %   09:31 
 1154199  2026-09-04 09:28:35  89M1A  32.8 °C  67.1 %   09:28 
 1154198  2026-09-04 09:27:09  4529D  28.9 °C  76.2 %   09:27 
 1154197  2026-09-04 09:25:28  4529A  29.5 °C  72.9 %   09:25 
 1154196  2026-09-04 09:24:04  4529C  30.1 °C  57.4 %   09:24 
 1154195  2026-09-04 09:23:20  89M1B  31.6 °C  69.9 %   09:23 
 1154194  2026-09-04 09:21:07  20402  27.8 °C  42.4 %   09:21 
 1154193  2026-09-04 09:18:56  89M1A  33.0 °C  66.5 %   09:18 
 1154192  2026-09-04 09:17:36  4529D  29.1 °C  76.4 %   09:17 
 1154191  2026-09-04 09:15:15  4529A  29.1 °C  71.1 %   09:15 
 1154190  2026-09-04 09:14:01  4529C  30.1 °C  57.3 %   09:14 
 1154189  2026-09-04 09:13:41  89M1B  31.6 °C  69.8 %   09:13 
 1154188  2026-09-04 09:10:55  20402  26.5 °C  43.8 %   09:10 
 1154187  2026-09-04 09:09:17  89M1A  32.2 °C  69.0 %   09:09 
 1154186  2026-09-04 09:08:04  4529D  29.4 °C  76.6 %   09:08 
 1154185  2026-09-04 09:05:04  4529A  29.6 °C  72.7 %   09:05 
 1154184  2026-09-04 09:04:02  89M1B  31.4 °C  69.8 %   09:04 
 1154183  2026-09-04 09:03:59  4529C  30.0 °C  57.4 %   09:03 
 1154182  2026-09-04 09:00:43  20402  27.0 °C  46.2 %   09:00 
 1154181  2026-09-04 08:59:38  89M1A  31.8 °C  69.4 %   08:59 
 1154180  2026-09-04 08:58:31  4529D  29.1 °C  76.4 %   08:58 
 1154179  2026-09-04 08:54:52  4529A  29.4 °C  72.3 %   08:54 
 1154178  2026-09-04 08:54:23  89M1B  31.3 °C  69.6 %   08:54 
 1154177  2026-09-04 08:53:57  4529C  30.0 °C  57.2 %   08:53 
 1154176  2026-09-04 08:50:33  20402  27.5 °C  48.2 %   08:50 
 1154175  2026-09-04 08:50:00  89M1A  31.6 °C  71.2 %   08:50 
 1154174  2026-09-04 08:48:58  4529D  29.0 °C  76.3 %   08:48 
 1154173  2026-09-04 08:44:45  89M1B  31.3 °C  69.5 %   08:44 
 1154172  2026-09-04 08:44:41  4529A  29.4 °C  72.5 %   08:44 
 1154171  2026-09-04 08:43:54  4529C  30.0 °C  57.0 %   08:43 
 1154170  2026-09-04 08:40:24  20402  27.5 °C  48.2 %   08:40 
 1154169  2026-09-04 08:40:21  89M1A  31.1 °C  73.6 %   08:40 
 1154168  2026-09-04 08:39:25  4529D  29.1 °C  76.4 %   08:39 
 1154167  2026-09-04 08:35:05  89M1B  31.3 °C  69.7 %   08:35 
 1154166  2026-09-04 08:34:27  4529A  28.9 °C  70.2 %   08:34 
 1154165  2026-09-04 08:33:52  4529C  29.9 °C  56.5 %   08:33 
 1154164  2026-09-04 08:30:44  89M1A  30.6 °C  74.2 %   08:30 
 1154163  2026-09-04 08:30:11  20402  28.8 °C  56.4 %   08:30 
 1154162  2026-09-04 08:29:53  4529D  29.0 °C  76.4 %   08:29 
 1154161  2026-09-04 08:25:27  89M1B  31.3 °C  69.6 %   08:25 
 1154160  2026-09-04 08:24:14  4529A  29.4 °C  72.2 %   08:24 
 1154159  2026-09-04 08:23:49  4529C  29.8 °C  56.4 %   08:23 
 1154158  2026-09-04 08:21:04  89M1A  30.4 °C  74.0 %   08:21 
 1154157  2026-09-04 08:20:20  4529D  29.0 °C  76.4 %   08:20 
 1154156  2026-09-04 08:20:01  20402  28.9 °C  56.4 %   08:20 
 1154155  2026-09-04 08:15:48  89M1B  31.3 °C  69.6 %   08:15 
 1154154  2026-09-04 08:14:02  4529A  29.0 °C  69.8 %   08:14 
 1154153  2026-09-04 08:13:47  4529C  29.8 °C  56.5 %   08:13 
 1154152  2026-09-04 08:11:26  89M1A  30.5 °C  75.8 %   08:11 
 1154151  2026-09-04 08:10:47  4529D  29.0 °C  76.0 %   08:10 
 1154150  2026-09-04 08:09:49  20402  29.8 °C  60.1 %   08:09 
 1154149  2026-09-04 08:06:09  89M1B  31.3 °C  69.7 %   08:06 
 1154148  2026-09-04 08:03:50  4529A  29.7 °C  72.1 %   08:03 
 1154147  2026-09-04 08:03:45  4529C  29.8 °C  56.3 %   08:03 
 1154146  2026-09-04 08:01:49  89M1A  30.3 °C  75.2 %   08:01 
 1154145  2026-09-04 08:01:15  4529D  29.1 °C  76.0 %   08:01 
 1154144  2026-09-04 07:59:39  20402  29.8 °C  60.2 %   07:59 
 1154143  2026-09-04 07:56:30  89M1B  31.2 °C  69.4 %   07:56 
 1154142  2026-09-04 07:53:42  4529C  29.8 °C  56.4 %   07:53 
 1154141  2026-09-04 07:53:39  4529A  29.5 °C  72.0 %   07:53 

Data every 20 minute.